Weather History for Burlington, IA

Change the Weather History Date:

Saturday, March 17, 2012

  Actual Average Record
Temperature  
Mean Temperature 71 °F 42 °F  
Max Temperature 82 °F 52 °F 82 °F (2012)
Min Temperature 59 °F 32 °F 0 °F (1906)
Degree Days  
Heating Degree Days 0 23  
Month to date heating degree days 286 451  
Since 1 July heating degree days 4237 4829  
Cooling Degree Days 6 0  
Month to date cooling degree days 14 0  
Year to date cooling degree days 14 0  
Growing Degree Days 22 (Base 50)    
Moisture  
Dew Point 57 °F    
Average Humidity 70    
Maximum Humidity 97    
Minimum Humidity 43    
Precipitation  
Precipitation 0.00 in 0.10 in 1.15 in (1998)
Month to date precipitation 0.84 1.48  
Year to date precipitation 2.51 4.34  
Sea Level Pressure  
Sea Level Pressure 29.95 in    
Wind  
Wind Speed 11 mph (South)    
Max Wind Speed 24 mph    
Max Gust Speed 30 mph    
Visibility 10 miles    
Events      
T = Trace of Precipitation, MM = Missing Value Source: NWS Daily Summary

Daily Weather History Graph

Daily Weather History Graph

Search for Another Location

Airport:

Trip Planner

Search our weather history database for the weather conditions in past years. The results will help you decide how hot, cold, wet, or windy it might be!

Date:

Astronomy

Mar. 17, 2012 Rise Set
Actual Time 7:11 AM CDT 7:13 PM CDT
Civil Twilight 6:44 AM CDT 7:41 PM CDT
Nautical Twilight 6:12 AM CDT 8:13 PM CDT
Astronomical Twilight 5:40 AM CDT 8:45 PM CDT
Moon 4:15 AM CDT (3/17) 2:36 PM CDT (3/17)
Length of Visible Light 12h 56m
Length of Day
12h 01m
Waning Crescent, 23% of the Moon is Illuminated
Mar 17
Waning Crescent
Mar 22
New
Mar 30
First Quarter
Apr 6
Full
Apr 13
Last Quarter

Hourly Weather History & Observations

Time (CDT) Temp. Heat Index Dew Point Humidity Pressure Visibility Wind Dir Wind Speed Gust Speed Precip Events Conditions
12:53 AM 64.9 °F - 57.9 °F 78% 29.97 in 10.0 mi South 12.7 mph - N/A   Clear
1:53 AM 64.9 °F - 57.9 °F 78% 29.96 in 10.0 mi South 13.8 mph - N/A   Clear
2:53 AM 64.9 °F - 57.9 °F 78% 29.97 in 10.0 mi South 11.5 mph - N/A   Clear
3:53 AM 63.0 °F - 59.0 °F 87% 29.96 in 10.0 mi South 10.4 mph - N/A   Clear
4:53 AM 62.1 °F - 57.9 °F 86% 29.97 in 10.0 mi South 8.1 mph - N/A   Clear
5:53 AM 62.1 °F - 59.0 °F 90% 29.98 in 10.0 mi South 8.1 mph - N/A   Clear
6:53 AM 62.1 °F - 59.0 °F 90% 29.99 in 10.0 mi South 8.1 mph - N/A   Clear
7:53 AM 61.0 °F - 59.0 °F 93% 30.01 in 9.0 mi South 6.9 mph - N/A   Clear
8:53 AM 64.9 °F - 61.0 °F 87% 30.01 in 10.0 mi South 9.2 mph - N/A   Clear
9:53 AM 69.1 °F - 61.0 °F 75% 30.01 in 10.0 mi South 11.5 mph - N/A   Clear
10:53 AM 73.0 °F - 62.1 °F 68% 30.00 in 10.0 mi South 12.7 mph - N/A   Clear
11:53 AM 77.0 °F - 61.0 °F 58% 29.98 in 10.0 mi SSW 15.0 mph - N/A   Partly Cloudy
12:53 PM 79.0 °F - 61.0 °F 54% 29.95 in 10.0 mi South 12.7 mph - N/A   Partly Cloudy
1:53 PM 82.0 °F 82.0 °F 57.9 °F 44% 29.92 in 10.0 mi South 16.1 mph 23.0 mph N/A   Clear
2:53 PM 81.0 °F 81.1 °F 57.9 °F 45% 29.90 in 10.0 mi SSW 19.6 mph 26.5 mph N/A   Partly Cloudy
3:53 PM 79.0 °F - 57.9 °F 48% 29.90 in 10.0 mi South 16.1 mph - N/A   Clear
4:53 PM 77.0 °F - 59.0 °F 54% 29.91 in 10.0 mi South 17.3 mph 28.8 mph N/A   Partly Cloudy
5:53 PM 73.0 °F - 57.0 °F 57% 29.91 in 10.0 mi South 11.5 mph - N/A   Clear
6:53 PM 70.0 °F - 53.1 °F 55% 29.90 in 10.0 mi South 9.2 mph - N/A   Clear
7:53 PM 66.9 °F - 50.0 °F 54% 29.93 in 10.0 mi SSW 8.1 mph - N/A   Clear
8:53 PM 64.9 °F - 51.1 °F 61% 29.94 in 10.0 mi South 11.5 mph - N/A   Clear
9:53 PM 63.0 °F - 51.1 °F 65% 29.95 in 10.0 mi SSE 5.8 mph - N/A   Clear
10:53 PM 62.1 °F - 52.0 °F 70% 29.95 in 10.0 mi South 5.8 mph - N/A   Mostly Cloudy
11:53 PM 62.1 °F - 53.1 °F 72% 29.95 in 10.0 mi South 6.9 mph - N/A   Overcast